Time,TemperatureF,DewpointF,PressureIn,WindDirection,WindDirectionDegrees,WindSpeedMPH,WindSpeedGustMPH,Humidity,HourlyPrecipIn,Conditions,Clouds,dailyrainin,SoftwareType,DateUTC
2013-04-08 00:02:00,59.5,59.2,29.65,North,-999,-999.0,-999.0,99,-99.99,,,-99.99,meteohub,2013-04-08 05:02:00,
2013-04-08 00:09:00,59.9,59.5,29.64,North,-999,-999.0,-999.0,99,-99.99,,,-99.99,meteohub,2013-04-08 05:09:00,
2013-04-08 00:15:00,60.4,60.1,29.65,North,-999,-999.0,-999.0,99,-99.99,,,-99.99,meteohub,2013-04-08 05:15:00,
2013-04-08 00:22:00,60.8,60.4,29.65,North,-999,-999.0,-999.0,99,-99.99,,,-99.99,meteohub,2013-04-08 05:22:00,
2013-04-08 00:27:00,61.0,60.6,29.64,North,-999,-999.0,-999.0,99,-99.99,,,-99.99,meteohub,2013-04-08 05:27:00,
2013-04-08 00:34:00,61.2,60.8,29.65,North,-999,-999.0,-999.0,99,-99.99,,,-99.99,meteohub,2013-04-08 05:34:00,
2013-04-08 00:40:00,61.2,60.6,29.65,North,-999,-999.0,-999.0,98,-99.99,,,-99.99,meteohub,2013-04-08 05:40:00,
2013-04-08 00:47:00,61.2,60.6,29.65,North,-999,-999.0,-999.0,98,-99.99,,,-99.99,meteohub,2013-04-08 05:47:00,
2013-04-08 00:52:00,61.2,60.6,29.65,North,-999,-999.0,-999.0,98,-99.99,,,-99.99,meteohub,2013-04-08 05:52:00,
2013-04-08 00:59:00,61.2,60.6,29.65,North,-999,-999.0,-999.0,98,-99.99,,,-99.99,meteohub,2013-04-08 05:59:00,
2013-04-08 01:05:00,61.2,60.6,29.66,North,-999,-999.0,-999.0,98,-99.99,,,-99.99,meteohub,2013-04-08 06:05:00,
2013-04-08 01:11:00,61.2,60.6,29.66,North,-999,-999.0,-999.0,98,-99.99,,,-99.99,meteohub,2013-04-08 06:11:00,
2013-04-08 01:17:00,61.0,60.4,29.67,North,-999,-999.0,-999.0,98,-99.99,,,-99.99,meteohub,2013-04-08 06:17:00,
2013-04-08 01:24:00,60.8,60.4,29.67,North,-999,-999.0,-999.0,99,-99.99,,,-99.99,meteohub,2013-04-08 06:24:00,
2013-04-08 01:30:00,60.8,60.4,29.67,North,-999,-999.0,-999.0,99,-99.99,,,-99.99,meteohub,2013-04-08 06:30:00,
2013-04-08 01:36:00,60.8,60.4,29.66,North,-999,-999.0,-999.0,99,-99.99,,,-99.99,meteohub,2013-04-08 06:36:00,
2013-04-08 01:42:00,61.2,60.8,29.68,North,-999,-999.0,-999.0,99,-99.99,,,-99.99,meteohub,2013-04-08 06:42:00,
2013-04-08 01:49:00,61.5,60.6,29.66,North,-999,-999.0,-999.0,97,-99.99,,,-99.99,meteohub,2013-04-08 06:49:00,
2013-04-08 01:55:00,61.5,60.4,29.67,North,-999,-999.0,-999.0,96,-99.99,,,-99.99,meteohub,2013-04-08 06:55:00,
2013-04-08 02:01:00,61.2,59.7,29.67,North,-999,-999.0,-999.0,95,-99.99,,,-99.99,meteohub,2013-04-08 07:01:00,
2013-04-08 02:07:00,60.6,59.2,29.67,North,-999,-999.0,-999.0,95,-99.99,,,-99.99,meteohub,2013-04-08 07:07:00,
2013-04-08 02:13:00,60.3,59.4,29.67,North,-999,-999.0,-999.0,97,-99.99,,,-99.99,meteohub,2013-04-08 07:13:00,
2013-04-08 02:19:00,60.6,60.1,29.66,North,-999,-999.0,-999.0,98,-99.99,,,-99.99,meteohub,2013-04-08 07:19:00,
2013-04-08 02:26:00,61.0,60.4,29.66,North,-999,-999.0,-999.0,98,-99.99,,,-99.99,meteohub,2013-04-08 07:26:00,
2013-04-08 02:32:00,61.2,60.6,29.67,North,-999,-999.0,-999.0,98,-99.99,,,-99.99,meteohub,2013-04-08 07:32:00,
2013-04-08 02:38:00,61.2,60.3,29.66,North,-999,-999.0,-999.0,97,-99.99,,,-99.99,meteohub,2013-04-08 07:38:00,
2013-04-08 02:45:00,61.2,60.3,29.66,North,-999,-999.0,-999.0,97,-99.99,,,-99.99,meteohub,2013-04-08 07:45:00,
2013-04-08 02:50:00,61.0,60.1,29.66,North,-999,-999.0,-999.0,97,-99.99,,,-99.99,meteohub,2013-04-08 07:50:00,
2013-04-08 02:57:00,61.0,60.4,29.65,North,-999,-999.0,-999.0,98,-99.99,,,-99.99,meteohub,2013-04-08 07:57:00,
2013-04-08 03:03:00,60.8,60.3,29.65,North,-999,-999.0,-999.0,98,-99.99,,,-99.99,meteohub,2013-04-08 08:03:00,
2013-04-08 03:09:00,60.8,60.3,29.65,North,-999,-999.0,-999.0,98,-99.99,,,-99.99,meteohub,2013-04-08 08:09:00,
2013-04-08 03:15:00,60.8,60.3,29.65,North,-999,-999.0,-999.0,98,-99.99,,,-99.99,meteohub,2013-04-08 08:15:00,
2013-04-08 03:21:00,60.6,60.1,29.65,North,-999,-999.0,-999.0,98,-99.99,,,-99.99,meteohub,2013-04-08 08:21:00,
2013-04-08 03:27:00,60.6,60.1,29.65,North,-999,-999.0,-999.0,98,-99.99,,,-99.99,meteohub,2013-04-08 08:27:00,
2013-04-08 03:34:00,60.3,59.9,29.64,North,-999,-999.0,-999.0,99,-99.99,,,-99.99,meteohub,2013-04-08 08:34:00,
2013-04-08 03:40:00,60.1,59.7,29.64,North,-999,-999.0,-999.0,99,-99.99,,,-99.99,meteohub,2013-04-08 08:40:00,
2013-04-08 03:46:00,59.9,59.5,29.64,North,-999,-999.0,-999.0,99,-99.99,,,-99.99,meteohub,2013-04-08 08:46:00,
2013-04-08 03:52:00,59.7,59.4,29.64,North,-999,-999.0,-999.0,99,-99.99,,,-99.99,meteohub,2013-04-08 08:52:00,
2013-04-08 03:57:00,59.5,59.2,29.64,North,-999,-999.0,-999.0,99,-99.99,,,-99.99,meteohub,2013-04-08 08:57:00,
2013-04-08 04:02:00,59.5,59.2,29.64,North,-999,-999.0,-999.0,99,-99.99,,,-99.99,meteohub,2013-04-08 09:02:00,
2013-04-08 04:07:00,59.4,59.0,29.63,North,-999,-999.0,-999.0,99,-99.99,,,-99.99,meteohub,2013-04-08 09:07:00,
2013-04-08 04:12:00,59.2,58.8,29.63,North,-999,-999.0,-999.0,99,-99.99,,,-99.99,meteohub,2013-04-08 09:12:00,
2013-04-08 04:17:00,59.0,58.6,29.63,North,-999,-999.0,-999.0,99,-99.99,,,-99.99,meteohub,2013-04-08 09:17:00,
2013-04-08 04:23:00,58.8,58.5,29.63,North,-999,-999.0,-999.0,99,-99.99,,,-99.99,meteohub,2013-04-08 09:23:00,
2013-04-08 04:29:00,58.6,58.3,29.63,North,-999,-999.0,-999.0,99,-99.99,,,-99.99,meteohub,2013-04-08 09:29:00,
2013-04-08 04:36:00,58.3,57.9,29.62,North,-999,-999.0,-999.0,99,-99.99,,,-99.99,meteohub,2013-04-08 09:36:00,
2013-04-08 04:42:00,58.1,57.7,29.63,North,-999,-999.0,-999.0,99,-99.99,,,-99.99,meteohub,2013-04-08 09:42:00,
2013-04-08 04:47:00,57.9,57.6,29.63,North,-999,-999.0,-999.0,99,-99.99,,,-99.99,meteohub,2013-04-08 09:47:00,
2013-04-08 04:52:00,57.9,57.6,29.63,North,-999,-999.0,-999.0,99,-99.99,,,-99.99,meteohub,2013-04-08 09:52:00,
2013-04-08 04:57:00,57.9,57.6,29.63,North,-999,-999.0,-999.0,99,-99.99,,,-99.99,meteohub,2013-04-08 09:57:00,
2013-04-08 05:02:00,57.9,57.6,29.63,North,-999,-999.0,-999.0,99,-99.99,,,-99.99,meteohub,2013-04-08 10:02:00,
2013-04-08 05:10:00,57.9,57.6,29.63,North,-999,-999.0,-999.0,99,-99.99,,,-99.99,meteohub,2013-04-08 10:10:00,
2013-04-08 05:16:00,57.7,57.4,29.63,North,-999,-999.0,-999.0,99,-99.99,,,-99.99,meteohub,2013-04-08 10:16:00,
2013-04-08 05:22:00,57.7,57.4,29.63,North,-999,-999.0,-999.0,99,-99.99,,,-99.99,meteohub,2013-04-08 10:22:00,
2013-04-08 05:27:00,57.6,57.2,29.63,North,-999,-999.0,-999.0,99,-99.99,,,-99.99,meteohub,2013-04-08 10:27:00,
2013-04-08 05:35:00,57.4,57.0,29.63,North,-999,-999.0,-999.0,99,-99.99,,,-99.99,meteohub,2013-04-08 10:35:00,
2013-04-08 05:42:00,57.2,56.8,29.63,North,-999,-999.0,-999.0,99,-99.99,,,-99.99,meteohub,2013-04-08 10:42:00,
2013-04-08 05:47:00,57.0,56.7,29.62,North,-999,-999.0,-999.0,99,-99.99,,,-99.99,meteohub,2013-04-08 10:47:00,
2013-04-08 05:52:00,57.0,56.7,29.62,North,-999,-999.0,-999.0,99,-99.99,,,-99.99,meteohub,2013-04-08 10:52:00,
2013-04-08 05:59:00,56.7,56.3,29.63,North,-999,-999.0,-999.0,99,-99.99,,,-99.99,meteohub,2013-04-08 10:59:00,
2013-04-08 06:06:00,56.3,55.9,29.63,North,-999,-999.0,-999.0,99,-99.99,,,-99.99,meteohub,2013-04-08 11:06:00,
2013-04-08 06:12:00,56.5,56.1,29.63,North,-999,-999.0,-999.0,99,-99.99,,,-99.99,meteohub,2013-04-08 11:12:00,
2013-04-08 06:17:00,56.3,55.9,29.64,North,-999,-999.0,-999.0,99,-99.99,,,-99.99,meteohub,2013-04-08 11:17:00,
2013-04-08 06:25:00,56.5,56.1,29.64,North,-999,-999.0,-999.0,99,-99.99,,,-99.99,meteohub,2013-04-08 11:25:00,
2013-04-08 06:31:00,56.5,56.1,29.64,North,-999,-999.0,-999.0,99,-99.99,,,-99.99,meteohub,2013-04-08 11:31:00,
2013-04-08 06:37:00,56.7,56.3,29.65,North,-999,-999.0,-999.0,99,-99.99,,,-99.99,meteohub,2013-04-08 11:37:00,
2013-04-08 06:42:00,56.7,56.3,29.64,North,-999,-999.0,-999.0,99,-99.99,,,-99.99,meteohub,2013-04-08 11:42:00,
2013-04-08 06:49:00,56.8,56.5,29.65,North,-999,-999.0,-999.0,99,-99.99,,,-99.99,meteohub,2013-04-08 11:49:00,
2013-04-08 06:55:00,56.8,56.5,29.65,North,-999,-999.0,-999.0,99,-99.99,,,-99.99,meteohub,2013-04-08 11:55:00,
2013-04-08 07:02:00,57.0,56.7,29.65,North,-999,-999.0,-999.0,99,-99.99,,,-99.99,meteohub,2013-04-08 12:02:00,
2013-04-08 07:07:00,57.0,56.7,29.66,North,-999,-999.0,-999.0,99,-99.99,,,-99.99,meteohub,2013-04-08 12:07:00,
2013-04-08 07:14:00,57.2,56.8,29.66,North,-999,-999.0,-999.0,99,-99.99,,,-99.99,meteohub,2013-04-08 12:14:00,
2013-04-08 07:20:00,57.4,57.0,29.67,North,-999,-999.0,-999.0,99,-99.99,,,-99.99,meteohub,2013-04-08 12:20:00,
2013-04-08 07:27:00,57.6,57.2,29.68,North,-999,-999.0,-999.0,99,-99.99,,,-99.99,meteohub,2013-04-08 12:27:00,
2013-04-08 07:32:00,57.6,57.2,29.67,North,-999,-999.0,-999.0,99,-99.99,,,-99.99,meteohub,2013-04-08 12:32:00,
2013-04-08 07:39:00,58.1,57.7,29.68,North,-999,-999.0,-999.0,99,-99.99,,,-99.99,meteohub,2013-04-08 12:39:00,
2013-04-08 07:45:00,58.3,57.9,29.68,North,-999,-999.0,-999.0,99,-99.99,,,-99.99,meteohub,2013-04-08 12:45:00,
2013-04-08 07:52:00,58.5,58.1,29.68,North,-999,-999.0,-999.0,99,-99.99,,,-99.99,meteohub,2013-04-08 12:52:00,
2013-04-08 07:57:00,58.5,58.1,29.68,North,-999,-999.0,-999.0,99,-99.99,,,-99.99,meteohub,2013-04-08 12:57:00,
2013-04-08 08:04:00,58.8,58.5,29.68,North,-999,-999.0,-999.0,99,-99.99,,,-99.99,meteohub,2013-04-08 13:04:00,
2013-04-08 08:10:00,59.0,58.6,29.68,North,-999,-999.0,-999.0,99,-99.99,,,-99.99,meteohub,2013-04-08 13:10:00,
2013-04-08 08:17:00,59.2,58.8,29.67,North,-999,-999.0,-999.0,99,-99.99,,,-99.99,meteohub,2013-04-08 13:17:00,
2013-04-08 08:22:00,59.5,59.2,29.68,North,-999,-999.0,-999.0,99,-99.99,,,-99.99,meteohub,2013-04-08 13:22:00,
2013-04-08 08:29:00,59.9,59.5,29.68,North,-999,-999.0,-999.0,99,-99.99,,,-99.99,meteohub,2013-04-08 13:29:00,
2013-04-08 08:35:00,60.4,60.1,29.68,North,-999,-999.0,-999.0,99,-99.99,,,-99.99,meteohub,2013-04-08 13:35:00,
2013-04-08 08:41:00,60.8,60.4,29.67,North,-999,-999.0,-999.0,99,-99.99,,,-99.99,meteohub,2013-04-08 13:41:00,
2013-04-08 08:47:00,61.2,60.6,29.67,North,-999,-999.0,-999.0,98,-99.99,,,-99.99,meteohub,2013-04-08 13:47:00,
2013-04-08 08:54:00,61.2,60.3,29.68,North,-999,-999.0,-999.0,97,-99.99,,,-99.99,meteohub,2013-04-08 13:54:00,
2013-04-08 09:00:00,61.5,60.6,29.68,North,-999,-999.0,-999.0,97,-99.99,,,-99.99,meteohub,2013-04-08 14:00:00,
2013-04-08 09:06:00,61.7,60.6,29.67,North,-999,-999.0,-999.0,96,-99.99,,,-99.99,meteohub,2013-04-08 14:06:00,
2013-04-08 09:12:00,62.1,61.0,29.68,North,-999,-999.0,-999.0,96,-99.99,,,-99.99,meteohub,2013-04-08 14:12:00,
2013-04-08 09:19:00,62.6,60.8,29.68,North,-999,-999.0,-999.0,94,-99.99,,,-99.99,meteohub,2013-04-08 14:19:00,
2013-04-08 09:24:00,62.8,60.8,29.68,North,-999,-999.0,-999.0,93,-99.99,,,-99.99,meteohub,2013-04-08 14:24:00,
2013-04-08 09:31:00,62.8,60.8,29.67,North,-999,-999.0,-999.0,93,-99.99,,,-99.99,meteohub,2013-04-08 14:31:00,
2013-04-08 09:37:00,64.0,61.3,29.66,North,-999,-999.0,-999.0,91,-99.99,,,-99.99,meteohub,2013-04-08 14:37:00,
2013-04-08 09:43:00,64.2,61.0,29.65,North,-999,-999.0,-999.0,89,-99.99,,,-99.99,meteohub,2013-04-08 14:43:00,
2013-04-08 09:49:00,65.5,61.9,29.64,North,-999,-999.0,-999.0,88,-99.99,,,-99.99,meteohub,2013-04-08 14:49:00,
2013-04-08 09:55:00,65.8,61.5,29.63,North,-999,-999.0,-999.0,86,-99.99,,,-99.99,meteohub,2013-04-08 14:55:00,
2013-04-08 10:02:00,65.3,61.0,29.63,North,-999,-999.0,-999.0,86,-99.99,,,-99.99,meteohub,2013-04-08 15:02:00,
2013-04-08 10:07:00,65.3,61.0,29.63,North,-999,-999.0,-999.0,86,-99.99,,,-99.99,meteohub,2013-04-08 15:07:00,
2013-04-08 10:14:00,65.5,61.2,29.63,North,-999,-999.0,-999.0,86,-99.99,,,-99.99,meteohub,2013-04-08 15:14:00,
2013-04-08 10:20:00,66.6,61.5,29.63,North,-999,-999.0,-999.0,84,-99.99,,,-99.99,meteohub,2013-04-08 15:20:00,
2013-04-08 10:26:00,68.0,61.9,29.64,North,-999,-999.0,-999.0,81,-99.99,,,-99.99,meteohub,2013-04-08 15:26:00,
2013-04-08 10:32:00,68.0,61.9,29.65,North,-999,-999.0,-999.0,81,-99.99,,,-99.99,meteohub,2013-04-08 15:32:00,
2013-04-08 10:37:00,69.6,62.4,29.65,North,-999,-999.0,-999.0,78,-99.99,,,-99.99,meteohub,2013-04-08 15:37:00,
2013-04-08 10:42:00,70.0,62.4,29.65,North,-999,-999.0,-999.0,77,-99.99,,,-99.99,meteohub,2013-04-08 15:42:00,
2013-04-08 10:47:00,70.3,62.8,29.66,North,-999,-999.0,-999.0,77,-99.99,,,-99.99,meteohub,2013-04-08 15:47:00,
2013-04-08 10:52:00,71.1,63.1,29.66,North,-999,-999.0,-999.0,76,-99.99,,,-99.99,meteohub,2013-04-08 15:52:00,
2013-04-08 10:57:00,72.0,62.8,29.66,North,-999,-999.0,-999.0,73,-99.99,,,-99.99,meteohub,2013-04-08 15:57:00,
2013-04-08 11:03:00,72.5,63.3,29.65,North,-999,-999.0,-999.0,73,-99.99,,,-99.99,meteohub,2013-04-08 16:03:00,
2013-04-08 11:10:00,72.3,63.1,29.65,North,-999,-999.0,-999.0,73,-99.99,,,-99.99,meteohub,2013-04-08 16:10:00,
2013-04-08 11:16:00,71.8,62.6,29.66,North,-999,-999.0,-999.0,73,-99.99,,,-99.99,meteohub,2013-04-08 16:16:00,
2013-04-08 11:22:00,71.2,62.1,29.67,North,-999,-999.0,-999.0,73,-99.99,,,-99.99,meteohub,2013-04-08 16:22:00,
2013-04-08 11:28:00,70.9,62.2,29.68,North,-999,-999.0,-999.0,74,-99.99,,,-99.99,meteohub,2013-04-08 16:28:00,
2013-04-08 11:34:00,72.0,62.8,29.67,North,-999,-999.0,-999.0,73,-99.99,,,-99.99,meteohub,2013-04-08 16:34:00,
2013-04-08 11:40:00,73.2,63.3,29.68,North,-999,-999.0,-999.0,71,-99.99,,,-99.99,meteohub,2013-04-08 16:40:00,
2013-04-08 11:46:00,73.4,63.0,29.68,North,-999,-999.0,-999.0,70,-99.99,,,-99.99,meteohub,2013-04-08 16:46:00,
2013-04-08 11:52:00,73.8,63.7,29.68,North,-999,-999.0,-999.0,71,-99.99,,,-99.99,meteohub,2013-04-08 16:52:00,
2013-04-08 11:57:00,73.9,63.5,29.68,North,-999,-999.0,-999.0,70,-99.99,,,-99.99,meteohub,2013-04-08 16:57:00,
2013-04-08 12:02:00,73.9,62.8,29.67,North,-999,-999.0,-999.0,68,-99.99,,,-99.99,meteohub,2013-04-08 17:02:00,
2013-04-08 12:07:00,74.7,64.2,29.68,North,-999,-999.0,-999.0,70,-99.99,,,-99.99,meteohub,2013-04-08 17:07:00,
2013-04-08 12:15:00,76.6,63.5,29.68,North,-999,-999.0,-999.0,64,-99.99,,,-99.99,meteohub,2013-04-08 17:15:00,
2013-04-08 12:21:00,74.8,62.8,29.68,North,-999,-999.0,-999.0,66,-99.99,,,-99.99,meteohub,2013-04-08 17:21:00,
2013-04-08 12:27:00,73.9,62.8,29.68,North,-999,-999.0,-999.0,68,-99.99,,,-99.99,meteohub,2013-04-08 17:27:00,
2013-04-08 12:32:00,73.9,62.8,29.67,North,-999,-999.0,-999.0,68,-99.99,,,-99.99,meteohub,2013-04-08 17:32:00,
2013-04-08 12:39:00,72.7,63.1,29.67,North,-999,-999.0,-999.0,72,-99.99,,,-99.99,meteohub,2013-04-08 17:39:00,
2013-04-08 12:46:00,72.0,62.1,29.68,North,-999,-999.0,-999.0,71,-99.99,,,-99.99,meteohub,2013-04-08 17:46:00,
2013-04-08 12:52:00,71.2,62.6,29.68,North,-999,-999.0,-999.0,74,-99.99,,,-99.99,meteohub,2013-04-08 17:52:00,
2013-04-08 12:57:00,70.9,62.2,29.68,North,-999,-999.0,-999.0,74,-99.99,,,-99.99,meteohub,2013-04-08 17:57:00,
2013-04-08 13:05:00,70.3,62.4,29.67,North,-999,-999.0,-999.0,76,-99.99,,,-99.99,meteohub,2013-04-08 18:05:00,
2013-04-08 13:11:00,70.3,62.4,29.68,North,-999,-999.0,-999.0,76,-99.99,,,-99.99,meteohub,2013-04-08 18:11:00,
2013-04-08 13:17:00,70.0,62.4,29.68,North,-999,-999.0,-999.0,77,-99.99,,,-99.99,meteohub,2013-04-08 18:17:00,
2013-04-08 13:22:00,69.8,62.2,29.68,North,-999,-999.0,-999.0,77,-99.99,,,-99.99,meteohub,2013-04-08 18:22:00,
2013-04-08 13:30:00,69.8,62.2,29.67,North,-999,-999.0,-999.0,77,-99.99,,,-99.99,meteohub,2013-04-08 18:30:00,
2013-04-08 13:36:00,70.2,62.2,29.67,North,-999,-999.0,-999.0,76,-99.99,,,-99.99,meteohub,2013-04-08 18:36:00,
2013-04-08 13:42:00,70.7,62.4,29.67,North,-999,-999.0,-999.0,75,-99.99,,,-99.99,meteohub,2013-04-08 18:42:00,
2013-04-08 13:47:00,71.6,63.0,29.67,North,-999,-999.0,-999.0,74,-99.99,,,-99.99,meteohub,2013-04-08 18:47:00,
2013-04-08 13:54:00,74.1,63.3,29.66,North,-999,-999.0,-999.0,69,-99.99,,,-99.99,meteohub,2013-04-08 18:54:00,
2013-04-08 14:01:00,75.0,63.3,29.66,North,-999,-999.0,-999.0,67,-99.99,,,-99.99,meteohub,2013-04-08 19:01:00,
2013-04-08 14:07:00,73.9,61.9,29.66,North,-999,-999.0,-999.0,66,-99.99,,,-99.99,meteohub,2013-04-08 19:07:00,
2013-04-08 14:13:00,74.3,62.6,29.66,North,-999,-999.0,-999.0,67,-99.99,,,-99.99,meteohub,2013-04-08 19:13:00,
2013-04-08 14:19:00,75.2,62.6,29.66,North,-999,-999.0,-999.0,65,-99.99,,,-99.99,meteohub,2013-04-08 19:19:00,
2013-04-08 14:26:00,75.0,61.5,29.66,North,-999,-999.0,-999.0,63,-99.99,,,-99.99,meteohub,2013-04-08 19:26:00,
2013-04-08 14:32:00,75.2,62.2,29.66,North,-999,-999.0,-999.0,64,-99.99,,,-99.99,meteohub,2013-04-08 19:32:00,
2013-04-08 14:37:00,76.3,62.2,29.66,North,-999,-999.0,-999.0,62,-99.99,,,-99.99,meteohub,2013-04-08 19:37:00,
2013-04-08 14:44:00,75.0,62.1,29.65,North,-999,-999.0,-999.0,64,-99.99,,,-99.99,meteohub,2013-04-08 19:44:00,
2013-04-08 14:51:00,74.3,62.2,29.65,North,-999,-999.0,-999.0,66,-99.99,,,-99.99,meteohub,2013-04-08 19:51:00,
2013-04-08 14:57:00,74.7,61.7,29.66,North,-999,-999.0,-999.0,64,-99.99,,,-99.99,meteohub,2013-04-08 19:57:00,
2013-04-08 15:02:00,73.8,62.1,29.65,North,-999,-999.0,-999.0,67,-99.99,,,-99.99,meteohub,2013-04-08 20:02:00,
2013-04-08 15:09:00,73.8,62.6,29.65,North,-999,-999.0,-999.0,68,-99.99,,,-99.99,meteohub,2013-04-08 20:09:00,
2013-04-08 15:15:00,73.8,61.7,29.65,North,-999,-999.0,-999.0,66,-99.99,,,-99.99,meteohub,2013-04-08 20:15:00,
2013-04-08 15:22:00,73.2,61.5,29.65,North,-999,-999.0,-999.0,67,-99.99,,,-99.99,meteohub,2013-04-08 20:22:00,
2013-04-08 15:27:00,72.5,61.7,29.65,North,-999,-999.0,-999.0,69,-99.99,,,-99.99,meteohub,2013-04-08 20:27:00,
2013-04-08 15:34:00,71.6,61.3,29.65,North,-999,-999.0,-999.0,70,-99.99,,,-99.99,meteohub,2013-04-08 20:34:00,
2013-04-08 15:40:00,70.9,61.9,29.65,North,-999,-999.0,-999.0,73,-99.99,,,-99.99,meteohub,2013-04-08 20:40:00,
2013-04-08 15:47:00,70.9,61.9,29.65,North,-999,-999.0,-999.0,73,-99.99,,,-99.99,meteohub,2013-04-08 20:47:00,
2013-04-08 15:52:00,70.7,62.1,29.65,North,-999,-999.0,-999.0,74,-99.99,,,-99.99,meteohub,2013-04-08 20:52:00,
2013-04-08 15:59:00,70.2,61.5,29.65,North,-999,-999.0,-999.0,74,-99.99,,,-99.99,meteohub,2013-04-08 20:59:00,
2013-04-08 16:05:00,69.8,61.9,29.65,North,-999,-999.0,-999.0,76,-99.99,,,-99.99,meteohub,2013-04-08 21:05:00,
2013-04-08 16:11:00,69.8,61.9,29.65,North,-999,-999.0,-999.0,76,-99.99,,,-99.99,meteohub,2013-04-08 21:11:00,
2013-04-08 16:17:00,69.6,61.7,29.64,North,-999,-999.0,-999.0,76,-99.99,,,-99.99,meteohub,2013-04-08 21:17:00,
2013-04-08 16:23:00,70.5,62.2,29.64,North,-999,-999.0,-999.0,75,-99.99,,,-99.99,meteohub,2013-04-08 21:23:00,
2013-04-08 16:29:00,70.5,62.2,29.64,North,-999,-999.0,-999.0,75,-99.99,,,-99.99,meteohub,2013-04-08 21:29:00,
2013-04-08 16:35:00,70.7,62.1,29.64,North,-999,-999.0,-999.0,74,-99.99,,,-99.99,meteohub,2013-04-08 21:35:00,
2013-04-08 16:41:00,70.2,61.5,29.64,North,-999,-999.0,-999.0,74,-99.99,,,-99.99,meteohub,2013-04-08 21:41:00,
2013-04-08 16:47:00,69.8,61.9,29.63,North,-999,-999.0,-999.0,76,-99.99,,,-99.99,meteohub,2013-04-08 21:47:00,
2013-04-08 16:52:00,69.6,61.7,29.64,North,-999,-999.0,-999.0,76,-99.99,,,-99.99,meteohub,2013-04-08 21:52:00,
2013-04-08 16:57:00,69.4,61.9,29.63,North,-999,-999.0,-999.0,77,-99.99,,,-99.99,meteohub,2013-04-08 21:57:00,
2013-04-08 17:02:00,69.3,61.7,29.64,North,-999,-999.0,-999.0,77,-99.99,,,-99.99,meteohub,2013-04-08 22:02:00,
2013-04-08 17:07:00,69.1,61.5,29.64,North,-999,-999.0,-999.0,77,-99.99,,,-99.99,meteohub,2013-04-08 22:07:00,
2013-04-08 17:12:00,68.9,61.7,29.65,North,-999,-999.0,-999.0,78,-99.99,,,-99.99,meteohub,2013-04-08 22:12:00,
2013-04-08 17:18:00,68.7,61.5,29.65,North,-999,-999.0,-999.0,78,-99.99,,,-99.99,meteohub,2013-04-08 22:18:00,
2013-04-08 17:25:00,68.5,61.7,29.64,North,-999,-999.0,-999.0,79,-99.99,,,-99.99,meteohub,2013-04-08 22:25:00,
2013-04-08 17:31:00,68.4,61.2,29.64,North,-999,-999.0,-999.0,78,-99.99,,,-99.99,meteohub,2013-04-08 22:31:00,
2013-04-08 17:37:00,68.9,61.7,29.64,North,-999,-999.0,-999.0,78,-99.99,,,-99.99,meteohub,2013-04-08 22:37:00,
2013-04-08 17:42:00,68.9,61.7,29.64,North,-999,-999.0,-999.0,78,-99.99,,,-99.99,meteohub,2013-04-08 22:42:00,
2013-04-08 17:47:00,68.9,61.7,29.63,North,-999,-999.0,-999.0,78,-99.99,,,-99.99,meteohub,2013-04-08 22:47:00,
2013-04-08 17:52:00,69.1,61.9,29.64,North,-999,-999.0,-999.0,78,-99.99,,,-99.99,meteohub,2013-04-08 22:52:00,
2013-04-08 17:59:00,68.9,61.7,29.63,North,-999,-999.0,-999.0,78,-99.99,,,-99.99,meteohub,2013-04-08 22:59:00,
2013-04-08 18:05:00,68.9,61.7,29.64,North,-999,-999.0,-999.0,78,-99.99,,,-99.99,meteohub,2013-04-08 23:05:00,
2013-04-08 18:11:00,68.7,61.5,29.64,North,-999,-999.0,-999.0,78,-99.99,,,-99.99,meteohub,2013-04-08 23:11:00,
2013-04-08 18:17:00,68.5,61.7,29.64,North,-999,-999.0,-999.0,79,-99.99,,,-99.99,meteohub,2013-04-08 23:17:00,
2013-04-08 18:22:00,68.5,61.7,29.64,North,-999,-999.0,-999.0,79,-99.99,,,-99.99,meteohub,2013-04-08 23:22:00,
2013-04-08 18:30:00,68.5,61.7,29.63,North,-999,-999.0,-999.0,79,-99.99,,,-99.99,meteohub,2013-04-08 23:30:00,
2013-04-08 18:36:00,68.5,62.1,29.64,North,-999,-999.0,-999.0,80,-99.99,,,-99.99,meteohub,2013-04-08 23:36:00,
2013-04-08 18:42:00,68.7,62.2,29.63,North,-999,-999.0,-999.0,80,-99.99,,,-99.99,meteohub,2013-04-08 23:42:00,
2013-04-08 18:47:00,68.7,61.9,29.64,North,-999,-999.0,-999.0,79,-99.99,,,-99.99,meteohub,2013-04-08 23:47:00,
2013-04-08 18:54:00,69.1,61.9,29.64,North,-999,-999.0,-999.0,78,-99.99,,,-99.99,meteohub,2013-04-08 23:54:00,
2013-04-08 19:00:00,69.1,61.5,29.63,North,-999,-999.0,-999.0,77,-99.99,,,-99.99,meteohub,2013-04-09 00:00:00,
2013-04-08 19:06:00,69.1,61.9,29.64,North,-999,-999.0,-999.0,78,-99.99,,,-99.99,meteohub,2013-04-09 00:06:00,
2013-04-08 19:12:00,68.9,61.7,29.64,North,-999,-999.0,-999.0,78,-99.99,,,-99.99,meteohub,2013-04-09 00:12:00,
2013-04-08 19:19:00,68.7,61.9,29.64,North,-999,-999.0,-999.0,79,-99.99,,,-99.99,meteohub,2013-04-09 00:19:00,
2013-04-08 19:25:00,68.5,61.7,29.64,North,-999,-999.0,-999.0,79,-99.99,,,-99.99,meteohub,2013-04-09 00:25:00,
2013-04-08 19:32:00,68.4,61.5,29.65,North,-999,-999.0,-999.0,79,-99.99,,,-99.99,meteohub,2013-04-09 00:32:00,
2013-04-08 19:37:00,68.2,61.7,29.64,North,-999,-999.0,-999.0,80,-99.99,,,-99.99,meteohub,2013-04-09 00:37:00,
2013-04-08 19:44:00,68.0,61.5,29.65,North,-999,-999.0,-999.0,80,-99.99,,,-99.99,meteohub,2013-04-09 00:44:00,
2013-04-08 19:50:00,68.0,61.9,29.65,North,-999,-999.0,-999.0,81,-99.99,,,-99.99,meteohub,2013-04-09 00:50:00,
2013-04-08 19:56:00,67.6,61.5,29.65,North,-999,-999.0,-999.0,81,-99.99,,,-99.99,meteohub,2013-04-09 00:56:00,
2013-04-08 20:02:00,67.6,61.5,29.65,North,-999,-999.0,-999.0,81,-99.99,,,-99.99,meteohub,2013-04-09 01:02:00,
2013-04-08 20:08:00,67.5,61.7,29.65,North,-999,-999.0,-999.0,82,-99.99,,,-99.99,meteohub,2013-04-09 01:08:00,
2013-04-08 20:15:00,67.1,61.3,29.65,North,-999,-999.0,-999.0,82,-99.99,,,-99.99,meteohub,2013-04-09 01:15:00,
2013-04-08 20:21:00,66.9,61.5,29.65,North,-999,-999.0,-999.0,83,-99.99,,,-99.99,meteohub,2013-04-09 01:21:00,
2013-04-08 20:27:00,66.9,61.5,29.66,North,-999,-999.0,-999.0,83,-99.99,,,-99.99,meteohub,2013-04-09 01:27:00,
2013-04-08 20:34:00,66.9,61.5,29.66,North,-999,-999.0,-999.0,83,-99.99,,,-99.99,meteohub,2013-04-09 01:34:00,
2013-04-08 20:40:00,66.7,61.7,29.66,North,-999,-999.0,-999.0,84,-99.99,,,-99.99,meteohub,2013-04-09 01:40:00,
2013-04-08 20:46:00,66.7,61.7,29.66,North,-999,-999.0,-999.0,84,-99.99,,,-99.99,meteohub,2013-04-09 01:46:00,
2013-04-08 20:52:00,66.7,61.7,29.67,North,-999,-999.0,-999.0,84,-99.99,,,-99.99,meteohub,2013-04-09 01:52:00,
2013-04-08 20:59:00,66.7,61.7,29.67,North,-999,-999.0,-999.0,84,-99.99,,,-99.99,meteohub,2013-04-09 01:59:00,
2013-04-08 21:04:00,66.6,61.9,29.67,North,-999,-999.0,-999.0,85,-99.99,,,-99.99,meteohub,2013-04-09 02:04:00,
2013-04-08 21:10:00,66.2,61.5,29.67,North,-999,-999.0,-999.0,85,-99.99,,,-99.99,meteohub,2013-04-09 02:10:00,
2013-04-08 21:16:00,66.4,62.1,29.67,North,-999,-999.0,-999.0,86,-99.99,,,-99.99,meteohub,2013-04-09 02:16:00,
2013-04-08 21:22:00,66.4,61.7,29.67,North,-999,-999.0,-999.0,85,-99.99,,,-99.99,meteohub,2013-04-09 02:22:00,
2013-04-08 21:27:00,66.6,61.9,29.67,North,-999,-999.0,-999.0,85,-99.99,,,-99.99,meteohub,2013-04-09 02:27:00,
2013-04-08 21:32:00,66.6,61.9,29.67,North,-999,-999.0,-999.0,85,-99.99,,,-99.99,meteohub,2013-04-09 02:32:00,
2013-04-08 21:37:00,66.6,61.9,29.68,North,-999,-999.0,-999.0,85,-99.99,,,-99.99,meteohub,2013-04-09 02:37:00,
2013-04-08 21:42:00,66.7,62.1,29.68,North,-999,-999.0,-999.0,85,-99.99,,,-99.99,meteohub,2013-04-09 02:42:00,
2013-04-08 21:47:00,66.6,61.9,29.68,North,-999,-999.0,-999.0,85,-99.99,,,-99.99,meteohub,2013-04-09 02:47:00,
2013-04-08 21:53:00,66.4,61.7,29.68,North,-999,-999.0,-999.0,85,-99.99,,,-99.99,meteohub,2013-04-09 02:53:00,
2013-04-08 21:59:00,66.0,61.7,29.68,North,-999,-999.0,-999.0,86,-99.99,,,-99.99,meteohub,2013-04-09 02:59:00,
2013-04-08 22:06:00,65.8,61.5,29.68,North,-999,-999.0,-999.0,86,-99.99,,,-99.99,meteohub,2013-04-09 03:06:00,
2013-04-08 22:12:00,66.0,61.7,29.68,North,-999,-999.0,-999.0,86,-99.99,,,-99.99,meteohub,2013-04-09 03:12:00,
2013-04-08 22:17:00,66.4,61.3,29.68,North,-999,-999.0,-999.0,84,-99.99,,,-99.99,meteohub,2013-04-09 03:17:00,
2013-04-08 22:25:00,66.4,61.3,29.67,North,-999,-999.0,-999.0,84,-99.99,,,-99.99,meteohub,2013-04-09 03:25:00,
2013-04-08 22:31:00,66.4,61.3,29.68,North,-999,-999.0,-999.0,84,-99.99,,,-99.99,meteohub,2013-04-09 03:31:00,
2013-04-08 22:37:00,66.2,60.8,29.68,North,-999,-999.0,-999.0,83,-99.99,,,-99.99,meteohub,2013-04-09 03:37:00,
2013-04-08 22:42:00,66.2,60.8,29.68,North,-999,-999.0,-999.0,83,-99.99,,,-99.99,meteohub,2013-04-09 03:42:00,
2013-04-08 22:47:00,66.2,60.6,29.68,North,-999,-999.0,-999.0,82,-99.99,,,-99.99,meteohub,2013-04-09 03:47:00,
2013-04-08 22:52:00,66.4,60.8,29.68,North,-999,-999.0,-999.0,82,-99.99,,,-99.99,meteohub,2013-04-09 03:52:00,
2013-04-08 22:57:00,66.2,60.6,29.68,North,-999,-999.0,-999.0,82,-99.99,,,-99.99,meteohub,2013-04-09 03:57:00,
2013-04-08 23:02:00,66.0,60.6,29.68,North,-999,-999.0,-999.0,83,-99.99,,,-99.99,meteohub,2013-04-09 04:02:00,
2013-04-08 23:05:00,66.0,60.6,29.68,North,-999,-999.0,-999.0,83,-99.99,,,-99.99,meteohub,2013-04-09 04:05:00,
2013-04-08 23:07:00,66.0,60.6,29.68,North,-999,-999.0,-999.0,83,-99.99,,,-99.99,meteohub,2013-04-09 04:07:00,
2013-04-08 23:12:00,66.0,60.6,29.68,North,-999,-999.0,-999.0,83,-99.99,,,-99.99,meteohub,2013-04-09 04:12:00,
2013-04-08 23:17:00,66.0,60.6,29.68,North,-999,-999.0,-999.0,83,-99.99,,,-99.99,meteohub,2013-04-09 04:17:00,
2013-04-08 23:22:00,65.8,60.6,29.68,North,-999,-999.0,-999.0,83,-99.99,,,-99.99,meteohub,2013-04-09 04:22:00,
2013-04-08 23:27:00,66.0,60.6,29.68,North,-999,-999.0,-999.0,83,-99.99,,,-99.99,meteohub,2013-04-09 04:27:00,
2013-04-08 23:34:00,66.2,60.6,29.68,North,-999,-999.0,-999.0,82,-99.99,,,-99.99,meteohub,2013-04-09 04:34:00,
2013-04-08 23:40:00,66.2,60.6,29.68,North,-999,-999.0,-999.0,82,-99.99,,,-99.99,meteohub,2013-04-09 04:40:00,
2013-04-08 23:46:00,66.0,60.4,29.68,North,-999,-999.0,-999.0,82,-99.99,,,-99.99,meteohub,2013-04-09 04:46:00,
2013-04-08 23:52:00,66.2,60.3,29.67,North,-999,-999.0,-999.0,81,-99.99,,,-99.99,meteohub,2013-04-09 04:52:00,
2013-04-08 23:57:00,66.2,60.3,29.68,North,-999,-999.0,-999.0,81,-99.99,,,-99.99,meteohub,2013-04-09 04:57:00,